Regional Weather Roundup
Issued by NWS New Orleans/Baton Rouge, LA

Home | Current Version | Previous Version | Graphics & Text | Print | Product List | Glossary On
Versions: 1 2 3 4 5 6 7 8 9 10 11 12 13 14 15 16 17 18 19 20 21 22 23 24 25 26 27 28 29 30 31 32 33 34 35 36 37 38 39 40 41 42 43 44 45 46 47 48 49 50
578
ASUS44 KLIX 252301
RWRLIX
NEW ORLEANS REGIONAL WEATHER ROUNDUP
NATIONAL WEATHER SERVICE NEW ORLEANS LA
600 PM CDT SAT OCT 25 2014

NOTE: "FAIR" INDICATES FEW OR NO CLOUDS BELOW 12,000 FEET WITH NO
      SIGNIFICANT WEATHER AND/OR OBSTRUCTIONS TO VISIBILITY.
      SKY/WX - SKY CONDITION AND SIGNIFICANT WEATHER.
      TMP - AIR TEMPERATURE.     DP    - DEWPOINT TEMPERATURE.
      RH  - RELATIVE HUMIDITY.   PRES  - PRESSURE.
      HI  - HEAT INDEX.          WCI   - WIND CHILL INDEX.

*  THESE STATIONS ARE NOT NWS OR FAA STATIONS AND ARE NOT UNDER
   NWS QUALITY CONTROL.

LAZ038-040-048-061>063-065>067-069-260000-
SOUTHEAST LOUISIANA

CITY           SKY/WX    TMP DP  RH WIND       PRES   REMARKS
N.O. AUDUBON   NOT AVBL
N.O. INTL ARPT CLEAR     75  56  51 NW7       30.06F
N.O. LAKEFRONT CLEAR     75  61  61 W6        30.07S
N.O. DOWNTOWN*   N/A     79  52  38 W3        30.07S
SLIDELL        CLEAR     73  57  57 SW5       30.06R
BATON ROUGE    CLEAR     77  53  43 NW5       30.07F
BOOTHVILLE     CLEAR     71  56  58 CALM      30.07F
BELLE CHASSE   CLEAR     73  55  53 CALM      30.06S
BOGALUSA*        N/A     78  57  48 N5        30.07S
NEW ROADS*       N/A     77  54  44 CALM      30.08S
GONZALES*        N/A     72  60  67 NW5       30.06F
HAMMOND*       NOT AVBL
HOUMA*         CLEAR     75  54  46 NW3       30.07S
PORT FOURCHON* CLEAR     73  59  60 SE3       30.10F

$$

MSZ070-080>082-260000-
SOUTHERN MISSISSIPPI

CITY           SKY/WX    TMP DP  RH WIND       PRES   REMARKS
MCCOMB         CLEAR     76  56  49 NW6       30.07S
GULFPORT       CLEAR     73  60  63 CALM      30.04S
BILOXI         CLEAR     71  61  69 SW6       30.05S
PASCAGOULA     CLEAR     74  57  55 CALM      30.05R
STENNIS ARPT*  CLEAR     73  57  56 VRB5      30.05S

$$

COASTAL OBSERVATIONS
LAKE AND NEARSHORE STATIONS

STATION/POSITION TIME  TEMP    WIND        PRES    WAVE
                       AIR SEA DIR/SP/G            HT/PER
                 (UTC) (F)     (DEG/KT/KT) (MB)    (FT/S)
PASCAGOULA       2200   78     340/  6/  9 1016.7
WAVELAND YACHT   2200   73     230/  5/  7 1016.8
GRAND ISLE       2200   74 72  140/  2/  4 1018.8
SOUTHWEST PASS   2200   80 80              1018.5
NEW CANAL        2200   77 71  260/  4/  5 1018.3
SHELL BEACH      2200   75 68  270/  6/  7 1017.6

OFFSHORE STATIONS

STATION/POSITION TIME  TEMP    WIND        PRES    WAVE
                       AIR SEA DIR/SP/G            HT/PER
                 (UTC) (F)     (DEG/KT/KT) (MB)    (FT/S)
64 S DAUPHIN ISL 2159   73 78  340/ 12/ 14 1017.8    3/ 5

$$




USA.gov is the U.S. government's official web portal to all federal, state and local government web resources and services.